Regional Weather Roundup
Issued by NWS

Home | Current Version | Previous Version | Text Only | Print | Product List | Glossary Off
Versions: 1 2 3 4 5 6 7 8 9 10 11 12 13 14 15 16 17 18 19 20 21 22 23 24 25 26 27 28

000
ASUS45 KSLC 251810
RWRUT

UTAH REGIONAL WEATHER ROUNDUP
NATIONAL WEATHER SERVICE SALT LAKE CITY UT
1200 PM MDT THU AUG 25 2016

UTZ001>011-023>025-251900-

NORTHERN UTAH

CITY           SKY/WX    TMP DP  RH WIND       PRES   REMARKS
BRIGHAM CITY     N/A     73  27  18 NW5       30.11F
HILL AFB       PTSUNNY   71  33  24 NE7       30.12F
LOGAN          MOSUNNY   69  35  28 CALM      30.15F
OGDEN          PTSUNNY   70  31  23 NE15      30.10F
PROVO AIRPORT  MOSUNNY   73  30  20 N10       30.12F
SALT LAKE CITY PTSUNNY   74  26  16 VRB5      30.09F
VERNAL         MOSUNNY   67  38  34 S7        30.20S
WENDOVER       MOSUNNY   73  27  17 SE10      30.12S
HEBER CITY     PTSUNNY   61  27  27 CALM      30.19F
WEST JORDAN    PTSUNNY   72  30  20 NE3       30.13F

$$

UTZ012>022-026-027-251900-

SOUTHERN/CENTRAL UTAH

CITY           SKY/WX    TMP DP  RH WIND       PRES   REMARKS
BLANDING       SUNNY     74  39  29 SE8       30.31F
BRYCE CANYON   CLOUDY    66  37  34 NW18G29   30.32R
CEDAR CITY     PTSUNNY   75  35  23 E12       30.20F
DELTA          PTSUNNY   72  21  15 SW12G17   30.13S
MILFORD        CLOUDY    72  34  24 S12       30.16F
MOAB/CYNLANDS  SUNNY     79  43  27 E6        30.11F
PRICE          MOSUNNY   74  31  20 VRB6      30.19F
ST GEORGE      MOCLDY    88  48  25 NW3       30.02F

$$

REGIONAL REPORTS     COLORADO/ARIZONA

CITY           SKY/WX    TMP DP  RH WIND       PRES   REMARKS
CRAIG, CO      CLOUDY    66  38  35 VRB3      30.27F
GRAND JUNCTION TSTM      65  48  54 SE12      30.17F
RIFLE          CLOUDY    67  43  41 NW7       30.24S
MONTROSE       MOSUNNY   71  46  40 N10       30.24F
CORTEZ         CLOUDY    72  47  40 SE5       30.25F
PAGE, AZ       MOSUNNY   79  45  29 CALM      30.11F
GRAND CANYON   SUNNY     77  45  32 SW12G17   30.29F
KINGMAN        SUNNY     90  47  22 SW12      30.06F
FLAGSTAFF      MOSUNNY   71  47  42 SW12      30.32F

$$

REGIONAL REPORTS    NEVADA/IDAHO/WYOMING

CITY           SKY/WX    TMP DP  RH WIND       PRES   REMARKS
LAS VEGAS, NV  MOSUNNY   96  30   9 S9G18     29.90F HX  90
ELY            MOSUNNY   66  19  16 CALM      30.19F
ELKO           SUNNY     74  22  14 NE6       30.15F
POCATELLO, ID  SUNNY     68  38  33 N8        30.17F
BURLEY         SUNNY     68  38  33 E15       30.13
EVANSTON, WY   CLOUDY    56  35  45 CALM      30.31S
ROCK SPRINGS   SUNNY     60  38  43 MISG      30.30F

$$




USA.gov is the U.S. government's official web portal to all federal, state and local government web resources and services.